Darstellungsparameter: Aktuell verwendete Einstellungen:
Skalierung der Graphiken ... ?
xyx+y,   Skalierungsfaktor:      Skalierung: Modus: x, Faktor: 1
Darstellungszeitraum ... ?
Vom - - bis: - -   Zeitraum: 23.09.2020 - 25.09.2020
Min/Max/Avg-Anzeige ... ?
Zeige MMA aktuell
Zeige MMA Monat
Zeige MMA alles
Zeige --A aktuell
Zeige --A Monat
Zeige --A alles
Keine MMA-Anzeige
MMA:
Average (ber die Originaldaten)
MMA-Basis: 23.09.2020 - 25.09.2020
Quicknavigation für Darstellung... ?
Tage:      1T, 2T, 3T, 5T -1T -2T -3T -5T +1T +2T +3T +5T
Wochen: 1W, 2W, 3W -1W -2W -3W +1W +2W +3W
Monate: 1M, 3M, 6M -1M -3M -6M +1M +3M +6M
Jahre:    1J, 3J, 5J, 10J -1J -3J -5J -10J +1J +3J +5J +10J
Nutze für die Darstellung ... ?
Originaldaten oder Mittelwerte auf ...
Stundenbasis Tagesbasis Wochenbasis
Monatsbasis Jahresbasis      Datenbasis: Original-Daten
Darstellen als:
Statistik (Auto) Statistik J:M      Darstellung:
Zur Graphik,    zurück zur Übersicht aller Sensoren.
 
Tabellarische Datenbersicht: ?
 
Sensor: Nr:Datum:Temp:Abs-Feuchte:Windchill:Wind:
Aussen-T/F 1 23-09-2020 00:00:00 14.9 C 9.18 g/m*3 14.9 C 0 km/h
2 23-09-2020 00:05:00 14.8 C 9.12 g/m*3 14.8 C 0 km/h
3 23-09-2020 00:10:00 14.7 C 9.07 g/m*3 14.7 C 0 km/h
4 23-09-2020 00:15:00 14.6 C 9.13 g/m*3 14.6 C 0 km/h
5 23-09-2020 00:20:00 14.6 C 9.13 g/m*3 14.6 C 0 km/h
6 23-09-2020 00:25:00 14.5 C 9.2 g/m*3 14.5 C 0 km/h
7 23-09-2020 00:30:00 14.4 C 9.15 g/m*3 14.4 C 0 km/h
8 23-09-2020 00:35:00 14.3 C 9.21 g/m*3 14.3 C 0 km/h
9 23-09-2020 00:40:00 14.2 C 9.16 g/m*3 14.2 C 0 km/h
10 23-09-2020 00:45:00 14.2 C 9.16 g/m*3 14.2 C 1.6 km/h
11 23-09-2020 00:50:00 14.2 C 9.16 g/m*3 14.2 C 0 km/h
12 23-09-2020 00:55:00 14.1 C 9.1 g/m*3 14.1 C 0 km/h
13 23-09-2020 01:00:00 14 C 9.17 g/m*3 14 C 0 km/h
14 23-09-2020 01:05:00 13.9 C 9.11 g/m*3 13.9 C 1.6 km/h
15 23-09-2020 01:10:00 13.9 C 9.11 g/m*3 13.9 C 0 km/h
16 23-09-2020 01:15:00 13.9 C 9.11 g/m*3 13.9 C 0 km/h
17 23-09-2020 01:20:00 13.9 C 9.11 g/m*3 13.9 C 0 km/h
18 23-09-2020 01:25:00 13.9 C 9.23 g/m*3 13.9 C 0 km/h
19 23-09-2020 01:30:00 13.9 C 9.23 g/m*3 13.9 C 0 km/h
20 23-09-2020 01:35:00 14.1 C 9.34 g/m*3 14.1 C 0 km/h
21 23-09-2020 01:40:00 14.1 C 9.34 g/m*3 14.1 C 1.6 km/h
22 23-09-2020 01:45:00 14.2 C 9.28 g/m*3 14.2 C 1.6 km/h
23 23-09-2020 01:50:00 14.3 C 9.34 g/m*3 14.3 C 0 km/h
24 23-09-2020 01:55:00 14.4 C 9.39 g/m*3 14.4 C 1.6 km/h
25 23-09-2020 02:00:00 14.5 C 9.45 g/m*3 14.5 C 3.2 km/h
Sensor: Nr:Datum:Temp:Abs-Feuchte:Windchill:Wind:
Aussen-T/F 26 23-09-2020 02:05:00 14.6 C 9.39 g/m*3 14.6 C 1.6 km/h
27 23-09-2020 02:10:00 14.6 C 9.51 g/m*3 14.6 C 1.6 km/h
28 23-09-2020 02:15:00 14.6 C 9.39 g/m*3 14.6 C 3.2 km/h
29 23-09-2020 02:20:00 14.6 C 9.39 g/m*3 14.6 C 0 km/h
30 23-09-2020 02:25:00 14.6 C 9.39 g/m*3 14.6 C 0 km/h
31 23-09-2020 02:30:00 14.6 C 9.39 g/m*3 14.6 C 0 km/h
32 23-09-2020 02:35:00 14.5 C 9.45 g/m*3 14.5 C 0 km/h
33 23-09-2020 02:40:00 14.4 C 9.39 g/m*3 14.4 C 1.6 km/h
34 23-09-2020 02:45:00 14.4 C 9.39 g/m*3 14.4 C 0 km/h
35 23-09-2020 02:50:00 14.3 C 9.34 g/m*3 14.3 C 0 km/h
36 23-09-2020 02:55:00 14.2 C 9.28 g/m*3 14.2 C 0 km/h
37 23-09-2020 03:00:00 14 C 9.17 g/m*3 14 C 0 km/h
38 23-09-2020 03:05:00 13.8 C 9.17 g/m*3 13.8 C 0 km/h
39 23-09-2020 03:10:00 13.7 C 9.12 g/m*3 13.7 C 0 km/h
40 23-09-2020 03:15:00 13.6 C 9.18 g/m*3 13.6 C 0 km/h
41 23-09-2020 03:20:00 13.7 C 9.35 g/m*3 13.7 C 0 km/h
42 23-09-2020 03:25:00 13.8 C 9.41 g/m*3 13.8 C 0 km/h
43 23-09-2020 03:30:00 13.8 C 9.41 g/m*3 13.8 C 0 km/h
44 23-09-2020 03:35:00 14 C 9.41 g/m*3 14 C 0 km/h
45 23-09-2020 03:40:00 14.1 C 9.47 g/m*3 14.1 C 0 km/h
46 23-09-2020 03:45:00 14.2 C 9.52 g/m*3 14.2 C 0 km/h
47 23-09-2020 03:50:00 14.2 C 9.52 g/m*3 14.2 C 0 km/h
48 23-09-2020 03:55:00 14.2 C 9.52 g/m*3 14.2 C 0 km/h
49 23-09-2020 04:00:00 14.3 C 9.58 g/m*3 14.3 C 0 km/h
50 23-09-2020 04:05:00 14.3 C 9.58 g/m*3 14.3 C 0 km/h
Sensor: Nr:Datum:Temp:Abs-Feuchte:Windchill:Wind:
Aussen-T/F 51 23-09-2020 04:10:00 14.3 C 9.58 g/m*3 14.3 C 0 km/h
52 23-09-2020 04:15:00 14.2 C 9.52 g/m*3 14.2 C 0 km/h
53 23-09-2020 04:20:00 14.2 C 9.52 g/m*3 14.2 C 0 km/h
54 23-09-2020 04:25:00 14.1 C 9.47 g/m*3 14.1 C 0 km/h
55 23-09-2020 04:30:00 14.1 C 9.47 g/m*3 14.1 C 0 km/h
56 23-09-2020 04:35:00 14 C 9.41 g/m*3 14 C 0 km/h
57 23-09-2020 04:40:00 13.9 C 9.35 g/m*3 13.9 C 0 km/h
58 23-09-2020 04:45:00 13.9 C 9.35 g/m*3 13.9 C 0 km/h
59 23-09-2020 04:50:00 13.8 C 9.29 g/m*3 13.8 C 0 km/h
60 23-09-2020 04:55:00 13.7 C 9.24 g/m*3 13.7 C 0 km/h
61 23-09-2020 05:00:00 13.6 C 9.18 g/m*3 13.6 C 0 km/h
62 23-09-2020 05:05:00 13.4 C 9.18 g/m*3 13.4 C 0 km/h
63 23-09-2020 05:10:00 13.3 C 9.13 g/m*3 13.3 C 0 km/h
64 23-09-2020 05:15:00 13.1 C 9.01 g/m*3 13.1 C 0 km/h
65 23-09-2020 05:20:00 12.9 C 8.9 g/m*3 12.9 C 0 km/h
66 23-09-2020 05:25:00 12.8 C 8.96 g/m*3 12.8 C 0 km/h
67 23-09-2020 05:30:00 12.6 C 8.85 g/m*3 12.6 C 0 km/h
68 23-09-2020 05:35:00 12.5 C 8.8 g/m*3 12.5 C 0 km/h
69 23-09-2020 05:40:00 12.4 C 8.85 g/m*3 12.4 C 0 km/h
70 23-09-2020 05:45:00 12.3 C 8.8 g/m*3 12.3 C 0 km/h
71 23-09-2020 05:50:00 12.2 C 8.74 g/m*3 12.2 C 0 km/h
72 23-09-2020 05:55:00 12.2 C 8.85 g/m*3 12.2 C 1.6 km/h
73 23-09-2020 06:00:00 12.2 C 8.85 g/m*3 12.2 C 0 km/h
74 23-09-2020 06:05:00 12.2 C 8.85 g/m*3 12.2 C 0 km/h
75 23-09-2020 06:10:00 12.2 C 8.85 g/m*3 12.2 C 0 km/h
Sensor: Nr:Datum:Temp:Abs-Feuchte:Windchill:Wind:
Aussen-T/F 76 23-09-2020 06:15:00 12.2 C 8.85 g/m*3 12.2 C 0 km/h
77 23-09-2020 06:20:00 12.2 C 8.85 g/m*3 12.2 C 0 km/h
78 23-09-2020 06:25:00 12.2 C 8.85 g/m*3 12.2 C 0 km/h
79 23-09-2020 06:30:00 12.1 C 8.79 g/m*3 12.1 C 0 km/h
80 23-09-2020 06:35:00 12 C 8.85 g/m*3 12 C 0 km/h
81 23-09-2020 06:40:00 12 C 8.85 g/m*3 12 C 0 km/h
82 23-09-2020 06:45:00 12 C 8.85 g/m*3 12 C 0 km/h
83 23-09-2020 06:50:00 12.1 C 8.9 g/m*3 12.1 C 3.2 km/h
84 23-09-2020 06:55:00 12.1 C 8.9 g/m*3 12.1 C 1.6 km/h
85 23-09-2020 07:00:00 12.3 C 9.01 g/m*3 12.3 C 3.2 km/h
86 23-09-2020 07:05:00 12.4 C 8.96 g/m*3 12.4 C 3.2 km/h
87 23-09-2020 07:10:00 12.7 C 9.02 g/m*3 12.7 C 3.2 km/h
88 23-09-2020 07:15:00 12.8 C 9.07 g/m*3 12.8 C 1.6 km/h
89 23-09-2020 07:20:00 13.1 C 9.01 g/m*3 13.1 C 3.2 km/h
90 23-09-2020 07:25:00 13.3 C 9.13 g/m*3 13.3 C 1.6 km/h
91 23-09-2020 07:30:00 13.5 C 9.12 g/m*3 13.5 C 1.6 km/h
92 23-09-2020 07:35:00 13.6 C 9.18 g/m*3 13.6 C 0 km/h
93 23-09-2020 07:40:00 13.7 C 9.24 g/m*3 13.7 C 0 km/h
94 23-09-2020 07:45:00 13.7 C 9.12 g/m*3 13.7 C 0 km/h
95 23-09-2020 07:50:00 13.8 C 9.29 g/m*3 13.8 C 0 km/h
96 23-09-2020 07:55:00 13.8 C 9.29 g/m*3 13.8 C 0 km/h
97 23-09-2020 08:00:00 13.8 C 9.17 g/m*3 13.8 C 0 km/h
98 23-09-2020 08:05:00 13.8 C 9.17 g/m*3 13.8 C 0 km/h
99 23-09-2020 08:10:00 13.9 C 9.23 g/m*3 13.9 C 1.6 km/h
100 23-09-2020 08:15:00 13.9 C 9.23 g/m*3 13.9 C 1.6 km/h
Sensor: Nr:Datum:Temp:Abs-Feuchte:Windchill:Wind:
Aussen-T/F 101 23-09-2020 08:20:00 14 C 9.29 g/m*3 14 C 1.6 km/h
102 23-09-2020 08:25:00 14.1 C 9.22 g/m*3 14.1 C 4.8 km/h
103 23-09-2020 08:30:00 14.1 C 9.34 g/m*3 14.1 C 4.8 km/h
104 23-09-2020 08:35:00 14.1 C 9.22 g/m*3 14.1 C 0 km/h
105 23-09-2020 08:40:00 14.1 C 9.22 g/m*3 14.1 C 0 km/h
106 23-09-2020 08:45:00 14.2 C 9.4 g/m*3 14.2 C 0 km/h
107 23-09-2020 08:50:00 14.2 C 9.4 g/m*3 14.2 C 1.6 km/h
108 23-09-2020 08:55:00 14.1 C 9.34 g/m*3 14.1 C 0 km/h
109 23-09-2020 09:00:00 14.1 C 9.34 g/m*3 14.1 C 1.6 km/h
110 23-09-2020 09:05:00 14.1 C 9.34 g/m*3 14.1 C 4.8 km/h
111 23-09-2020 09:10:00 14 C 9.29 g/m*3 14 C 1.6 km/h
112 23-09-2020 09:15:00 14 C 9.29 g/m*3 14 C 3.2 km/h
113 23-09-2020 09:20:00 14 C 9.41 g/m*3 14 C 1.6 km/h
114 23-09-2020 09:25:00 14 C 9.41 g/m*3 14 C 1.6 km/h
115 23-09-2020 09:30:00 14.1 C 9.47 g/m*3 14.1 C 3.2 km/h
116 23-09-2020 09:35:00 14.1 C 9.47 g/m*3 14.1 C 0 km/h
117 23-09-2020 09:40:00 14.2 C 9.4 g/m*3 14.2 C 0 km/h
118 23-09-2020 09:45:00 14.4 C 9.27 g/m*3 14.4 C 8.1 km/h
119 23-09-2020 09:50:00 14.9 C 9.18 g/m*3 14.9 C 9.7 km/h
120 23-09-2020 09:55:00 15.6 C 9.04 g/m*3 15.6 C 11.3 km/h
121 23-09-2020 10:00:00 16 C 8.99 g/m*3 16 C 14.5 km/h
122 23-09-2020 10:05:00 16.4 C 8.93 g/m*3 16.4 C 12.9 km/h
123 23-09-2020 10:10:00 16.8 C 9.01 g/m*3 16.8 C 16.1 km/h
124 23-09-2020 10:15:00 17.2 C 8.93 g/m*3 17.2 C 16.1 km/h
125 23-09-2020 10:20:00 17.3 C 8.84 g/m*3 17.3 C 11.3 km/h
Sensor: Nr:Datum:Temp:Abs-Feuchte:Windchill:Wind:
Aussen-T/F 126 23-09-2020 10:25:00 17.5 C 8.95 g/m*3 17.5 C 9.7 km/h
127 23-09-2020 10:30:00 17.6 C 9 g/m*3 17.6 C 9.7 km/h
128 23-09-2020 10:35:00 17.7 C 9.05 g/m*3 17.7 C 9.7 km/h
129 23-09-2020 10:40:00 17.7 C 8.9 g/m*3 17.7 C 8.1 km/h
130 23-09-2020 10:45:00 17.9 C 9.01 g/m*3 17.9 C 8.1 km/h
131 23-09-2020 10:50:00 18 C 9.22 g/m*3 18 C 9.7 km/h
132 23-09-2020 10:55:00 18.2 C 9.17 g/m*3 18.2 C 8.1 km/h
133 23-09-2020 11:00:00 18.3 C 9.07 g/m*3 18.3 C 11.3 km/h
134 23-09-2020 11:05:00 18.4 C 9.12 g/m*3 18.4 C 4.8 km/h
135 23-09-2020 11:10:00 18.7 C 9.29 g/m*3 18.7 C 11.3 km/h
136 23-09-2020 11:15:00 18.9 C 9.07 g/m*3 18.9 C 11.3 km/h
137 23-09-2020 11:20:00 19.1 C 9.34 g/m*3 19.1 C 11.3 km/h
138 23-09-2020 11:25:00 19.3 C 9.45 g/m*3 19.3 C 9.7 km/h
139 23-09-2020 11:30:00 19.3 C 9.62 g/m*3 19.3 C 9.7 km/h
140 23-09-2020 11:35:00 19.4 C 9.84 g/m*3 19.4 C 11.3 km/h
141 23-09-2020 11:40:00 19.4 C 10.01 g/m*3 19.4 C 9.7 km/h
142 23-09-2020 11:45:00 19.5 C 10.07 g/m*3 19.5 C 9.7 km/h
143 23-09-2020 11:50:00 19.6 C 10.3 g/m*3 19.6 C 11.3 km/h
144 23-09-2020 11:55:00 19.7 C 10.36 g/m*3 19.7 C 12.9 km/h
145 23-09-2020 12:00:00 19.7 C 10.36 g/m*3 19.7 C 11.3 km/h
146 23-09-2020 12:05:00 19.8 C 10.42 g/m*3 19.8 C 16.1 km/h
147 23-09-2020 12:10:00 19.8 C 10.42 g/m*3 19.8 C 16.1 km/h
148 23-09-2020 12:15:00 19.9 C 10.48 g/m*3 19.9 C 16.1 km/h
149 23-09-2020 12:20:00 20 C 10.37 g/m*3 20 C 17.7 km/h
150 23-09-2020 12:25:00 20.2 C 10.67 g/m*3 20.2 C 9.7 km/h
Sensor: Nr:Datum:Temp:Abs-Feuchte:Windchill:Wind:
Aussen-T/F 151 23-09-2020 12:30:00 20.3 C 10.55 g/m*3 20.3 C 16.1 km/h
152 23-09-2020 12:35:00 20.4 C 10.61 g/m*3 20.4 C 14.5 km/h
153 23-09-2020 12:40:00 20.6 C 10.74 g/m*3 20.6 C 14.5 km/h
154 23-09-2020 12:45:00 20.8 C 10.68 g/m*3 20.8 C 12.9 km/h
155 23-09-2020 12:50:00 20.9 C 10.56 g/m*3 20.9 C 12.9 km/h
156 23-09-2020 12:55:00 21.1 C 10.69 g/m*3 21.1 C 11.3 km/h
157 23-09-2020 13:00:00 21.1 C 10.69 g/m*3 21.1 C 11.3 km/h
158 23-09-2020 13:05:00 21.2 C 10.56 g/m*3 21.2 C 9.7 km/h
159 23-09-2020 13:10:00 21.3 C 10.81 g/m*3 21.3 C 9.7 km/h
160 23-09-2020 13:15:00 21.3 C 10.81 g/m*3 21.3 C 4.8 km/h
161 23-09-2020 13:20:00 21.4 C 10.69 g/m*3 21.4 C 12.9 km/h
162 23-09-2020 13:25:00 21.5 C 10.75 g/m*3 21.5 C 17.7 km/h
163 23-09-2020 13:30:00 21.6 C 10.81 g/m*3 21.6 C 6.4 km/h
164 23-09-2020 13:35:00 21.7 C 11.06 g/m*3 21.7 C 12.9 km/h
165 23-09-2020 13:40:00 21.9 C 10.81 g/m*3 21.9 C 12.9 km/h
166 23-09-2020 13:45:00 22.1 C 10.93 g/m*3 22.1 C 16.1 km/h
167 23-09-2020 13:50:00 22.3 C 11.06 g/m*3 22.3 C 11.3 km/h
168 23-09-2020 13:55:00 22.4 C 11.12 g/m*3 22.4 C 11.3 km/h
169 23-09-2020 14:00:00 22.5 C 10.79 g/m*3 22.5 C 11.3 km/h
170 23-09-2020 14:05:00 22.5 C 10.79 g/m*3 22.5 C 12.9 km/h
171 23-09-2020 14:10:00 22.6 C 11.05 g/m*3 22.6 C 8.1 km/h
172 23-09-2020 14:15:00 22.7 C 10.91 g/m*3 22.7 C 11.3 km/h
173 23-09-2020 14:20:00 22.9 C 11.04 g/m*3 22.9 C 8.1 km/h
174 23-09-2020 14:25:00 23 C 11.1 g/m*3 23 C 12.9 km/h
175 23-09-2020 14:30:00 23.2 C 11.23 g/m*3 23.2 C 11.3 km/h
Sensor: Nr:Datum:Temp:Abs-Feuchte:Windchill:Wind:
Aussen-T/F 176 23-09-2020 14:35:00 23.3 C 11.08 g/m*3 23.3 C 9.7 km/h
177 23-09-2020 14:40:00 23.5 C 11.21 g/m*3 23.5 C 11.3 km/h
178 23-09-2020 14:45:00 23.4 C 11.14 g/m*3 23.4 C 16.1 km/h
179 23-09-2020 14:50:00 23.4 C 11.14 g/m*3 23.4 C 19.3 km/h
180 23-09-2020 14:55:00 23.4 C 11.35 g/m*3 23.4 C 12.9 km/h
181 23-09-2020 15:00:00 23.4 C 11.14 g/m*3 23.4 C 14.5 km/h
182 23-09-2020 15:05:00 23.4 C 11.14 g/m*3 23.4 C 12.9 km/h
183 23-09-2020 15:10:00 23.3 C 11.08 g/m*3 23.3 C 11.3 km/h
184 23-09-2020 15:15:00 23.2 C 11.02 g/m*3 23.2 C 11.3 km/h
185 23-09-2020 15:20:00 23.2 C 11.23 g/m*3 23.2 C 8.1 km/h
186 23-09-2020 15:25:00 23.2 C 11.02 g/m*3 23.2 C 9.7 km/h
187 23-09-2020 15:30:00 23.3 C 11.29 g/m*3 23.3 C 8.1 km/h
188 23-09-2020 15:35:00 23.5 C 11.21 g/m*3 23.5 C 12.9 km/h
189 23-09-2020 15:40:00 23.6 C 11.48 g/m*3 23.6 C 16.1 km/h
190 23-09-2020 15:45:00 23.6 C 11.27 g/m*3 23.6 C 9.7 km/h
191 23-09-2020 15:50:00 23.7 C 11.34 g/m*3 23.7 C 11.3 km/h
192 23-09-2020 15:55:00 23.5 C 11.21 g/m*3 23.5 C 12.9 km/h
193 23-09-2020 16:00:00 23.4 C 11.14 g/m*3 23.4 C 12.9 km/h
194 23-09-2020 16:05:00 23.4 C 11.35 g/m*3 23.4 C 6.4 km/h
195 23-09-2020 16:10:00 23.5 C 11.21 g/m*3 23.5 C 11.3 km/h
196 23-09-2020 16:15:00 23.5 C 11.21 g/m*3 23.5 C 14.5 km/h
197 23-09-2020 16:20:00 23.4 C 11.14 g/m*3 23.4 C 8.1 km/h
198 23-09-2020 16:25:00 23.5 C 11.21 g/m*3 23.5 C 8.1 km/h
199 23-09-2020 16:30:00 23.6 C 11.27 g/m*3 23.6 C 8.1 km/h
200 23-09-2020 16:35:00 23.8 C 11.19 g/m*3 23.8 C 12.9 km/h
Sensor: Nr:Datum:Temp:Abs-Feuchte:Windchill:Wind:
Aussen-T/F 201 23-09-2020 16:40:00 23.9 C 11.25 g/m*3 23.9 C 11.3 km/h
202 23-09-2020 16:45:00 23.8 C 11.4 g/m*3 23.8 C 11.3 km/h
203 23-09-2020 16:50:00 23.9 C 11.25 g/m*3 23.9 C 16.1 km/h
204 23-09-2020 16:55:00 23.9 C 11.25 g/m*3 23.9 C 14.5 km/h
205 23-09-2020 17:00:00 23.9 C 11.25 g/m*3 23.9 C 12.9 km/h
206 23-09-2020 17:05:00 23.8 C 11.4 g/m*3 23.8 C 6.4 km/h
207 23-09-2020 17:10:00 23.7 C 11.34 g/m*3 23.7 C 4.8 km/h
208 23-09-2020 17:15:00 23.6 C 11.27 g/m*3 23.6 C 6.4 km/h
209 23-09-2020 17:20:00 23.5 C 11.21 g/m*3 23.5 C 9.7 km/h
210 23-09-2020 17:25:00 23.4 C 11.14 g/m*3 23.4 C 16.1 km/h
211 23-09-2020 17:30:00 23.4 C 11.14 g/m*3 23.4 C 12.9 km/h
212 23-09-2020 17:35:00 23.5 C 11.42 g/m*3 23.5 C 12.9 km/h
213 23-09-2020 17:40:00 23.9 C 11.47 g/m*3 23.9 C 6.4 km/h
214 23-09-2020 17:45:00 24.2 C 11.44 g/m*3 24.2 C 9.7 km/h
215 23-09-2020 17:50:00 24.4 C 11.35 g/m*3 24.4 C 11.3 km/h
216 23-09-2020 17:55:00 24.1 C 10.94 g/m*3 24.1 C 9.7 km/h
217 23-09-2020 18:00:00 23.9 C 11.03 g/m*3 23.9 C 9.7 km/h
218 23-09-2020 18:05:00 23.8 C 10.97 g/m*3 23.8 C 14.5 km/h
219 23-09-2020 18:10:00 23.4 C 11.14 g/m*3 23.4 C 8.1 km/h
220 23-09-2020 18:15:00 23.2 C 11.02 g/m*3 23.2 C 3.2 km/h
221 23-09-2020 18:20:00 22.9 C 11.04 g/m*3 22.9 C 6.4 km/h
222 23-09-2020 18:25:00 22.7 C 11.11 g/m*3 22.7 C 3.2 km/h
223 23-09-2020 18:30:00 22.4 C 11.12 g/m*3 22.4 C 4.8 km/h
224 23-09-2020 18:35:00 22.2 C 10.99 g/m*3 22.2 C 4.8 km/h
225 23-09-2020 18:40:00 22 C 11.06 g/m*3 22 C 3.2 km/h
Sensor: Nr:Datum:Temp:Abs-Feuchte:Windchill:Wind:
Aussen-T/F 226 23-09-2020 18:45:00 21.8 C 11.13 g/m*3 21.8 C 3.2 km/h
227 23-09-2020 18:50:00 21.6 C 11.19 g/m*3 21.6 C 0 km/h
228 23-09-2020 18:55:00 21.4 C 11.25 g/m*3 21.4 C 1.6 km/h
229 23-09-2020 19:00:00 21.2 C 11.3 g/m*3 21.2 C 0 km/h
230 23-09-2020 19:05:00 20.8 C 11.23 g/m*3 20.8 C 0 km/h
231 23-09-2020 19:10:00 20.6 C 11.28 g/m*3 20.6 C 0 km/h
232 23-09-2020 19:15:00 20.3 C 11.61 g/m*3 20.3 C 3.2 km/h
233 23-09-2020 19:20:00 19.9 C 11.17 g/m*3 19.9 C 3.2 km/h
234 23-09-2020 19:25:00 19.6 C 11.14 g/m*3 19.6 C 1.6 km/h
235 23-09-2020 19:30:00 19.2 C 11.05 g/m*3 19.2 C 3.2 km/h
236 23-09-2020 19:35:00 18.9 C 11.02 g/m*3 18.9 C 1.6 km/h
237 23-09-2020 19:40:00 18.7 C 11.05 g/m*3 18.7 C 0 km/h
238 23-09-2020 19:45:00 18.4 C 11.01 g/m*3 18.4 C 0 km/h
239 23-09-2020 19:50:00 18.2 C 11.04 g/m*3 18.2 C 3.2 km/h
240 23-09-2020 19:55:00 18 C 10.91 g/m*3 18 C 1.6 km/h
241 23-09-2020 20:00:00 17.8 C 10.93 g/m*3 17.8 C 1.6 km/h
242 23-09-2020 20:05:00 17.7 C 11.01 g/m*3 17.7 C 0 km/h
243 23-09-2020 20:10:00 17.6 C 10.95 g/m*3 17.6 C 0 km/h
244 23-09-2020 20:15:00 17.4 C 10.97 g/m*3 17.4 C 0 km/h
245 23-09-2020 20:20:00 17.3 C 11.05 g/m*3 17.3 C 4.8 km/h
246 23-09-2020 20:25:00 17.3 C 11.2 g/m*3 17.3 C 1.6 km/h
247 23-09-2020 20:30:00 17.2 C 11.13 g/m*3 17.2 C 3.2 km/h
248 23-09-2020 20:35:00 17.2 C 11.13 g/m*3 17.2 C 0 km/h
249 23-09-2020 20:40:00 17.2 C 11.13 g/m*3 17.2 C 1.6 km/h
250 23-09-2020 20:45:00 17.2 C 11.28 g/m*3 17.2 C 0 km/h
Sensor: Nr:Datum:Temp:Abs-Feuchte:Windchill:Wind:
Aussen-T/F 251 23-09-2020 20:50:00 17.2 C 11.28 g/m*3 17.2 C 1.6 km/h
252 23-09-2020 20:55:00 17.2 C 11.28 g/m*3 17.2 C 1.6 km/h
253 23-09-2020 21:00:00 17.3 C 11.34 g/m*3 17.3 C 3.2 km/h
254 23-09-2020 21:05:00 17.3 C 11.34 g/m*3 17.3 C 0 km/h
255 23-09-2020 21:10:00 17.4 C 11.41 g/m*3 17.4 C 0 km/h
256 23-09-2020 21:15:00 17.3 C 11.34 g/m*3 17.3 C 1.6 km/h
257 23-09-2020 21:20:00 17.3 C 11.49 g/m*3 17.3 C 3.2 km/h
258 23-09-2020 21:25:00 17.4 C 11.41 g/m*3 17.4 C 1.6 km/h
259 23-09-2020 21:30:00 17.4 C 11.41 g/m*3 17.4 C 1.6 km/h
260 23-09-2020 21:35:00 17.6 C 11.55 g/m*3 17.6 C 4.8 km/h
261 23-09-2020 21:40:00 17.8 C 11.54 g/m*3 17.8 C 3.2 km/h
262 23-09-2020 21:45:00 17.8 C 11.54 g/m*3 17.8 C 1.6 km/h
263 23-09-2020 21:50:00 17.8 C 11.54 g/m*3 17.8 C 8.1 km/h
264 23-09-2020 21:55:00 17.8 C 11.69 g/m*3 17.8 C 1.6 km/h
265 23-09-2020 22:00:00 17.8 C 11.69 g/m*3 17.8 C 0 km/h
266 23-09-2020 22:05:00 17.8 C 11.69 g/m*3 17.8 C 3.2 km/h
267 23-09-2020 22:10:00 17.8 C 11.69 g/m*3 17.8 C 0 km/h
268 23-09-2020 22:15:00 17.8 C 11.69 g/m*3 17.8 C 3.2 km/h
269 23-09-2020 22:20:00 17.8 C 11.69 g/m*3 17.8 C 0 km/h
270 23-09-2020 22:25:00 17.8 C 11.54 g/m*3 17.8 C 0 km/h
271 23-09-2020 22:30:00 17.8 C 11.69 g/m*3 17.8 C 0 km/h
272 23-09-2020 22:35:00 17.6 C 11.55 g/m*3 17.6 C 0 km/h
273 23-09-2020 22:40:00 17.5 C 11.63 g/m*3 17.5 C 0 km/h
274 23-09-2020 22:45:00 17.4 C 11.56 g/m*3 17.4 C 0 km/h
275 23-09-2020 22:50:00 17.3 C 11.64 g/m*3 17.3 C 0 km/h
Sensor: Nr:Datum:Temp:Abs-Feuchte:Windchill:Wind:
Aussen-T/F 276 23-09-2020 22:55:00 17.3 C 11.64 g/m*3 17.3 C 0 km/h
277 23-09-2020 23:00:00 17.3 C 11.64 g/m*3 17.3 C 0 km/h
278 23-09-2020 23:05:00 17.3 C 11.64 g/m*3 17.3 C 1.6 km/h
279 23-09-2020 23:10:00 17.3 C 11.64 g/m*3 17.3 C 1.6 km/h
280 23-09-2020 23:15:00 17.3 C 11.64 g/m*3 17.3 C 0 km/h
281 23-09-2020 23:20:00 17.3 C 11.79 g/m*3 17.3 C 3.2 km/h
282 23-09-2020 23:25:00 17.4 C 11.71 g/m*3 17.4 C 1.6 km/h
283 23-09-2020 23:30:00 17.5 C 11.78 g/m*3 17.5 C 0 km/h
284 23-09-2020 23:35:00 17.6 C 11.85 g/m*3 17.6 C 0 km/h
285 23-09-2020 23:40:00 17.7 C 11.77 g/m*3 17.7 C 3.2 km/h
286 23-09-2020 23:45:00 17.8 C 11.84 g/m*3 17.8 C 1.6 km/h
287 23-09-2020 23:50:00 17.8 C 11.84 g/m*3 17.8 C 3.2 km/h
288 23-09-2020 23:55:00 17.8 C 11.84 g/m*3 17.8 C 3.2 km/h
289 24-09-2020 00:00:00 17.9 C 11.91 g/m*3 17.9 C 0 km/h
290 24-09-2020 00:05:00 17.9 C 11.76 g/m*3 17.9 C 0 km/h
291 24-09-2020 00:10:00 17.9 C 11.76 g/m*3 17.9 C 11.3 km/h
292 24-09-2020 00:15:00 17.9 C 11.76 g/m*3 17.9 C 0 km/h
293 24-09-2020 00:20:00 17.8 C 11.69 g/m*3 17.8 C 1.6 km/h
294 24-09-2020 00:25:00 17.6 C 11.55 g/m*3 17.6 C 1.6 km/h
295 24-09-2020 00:30:00 17.4 C 11.71 g/m*3 17.4 C 8.1 km/h
296 24-09-2020 00:35:00 17.5 C 11.78 g/m*3 17.5 C 3.2 km/h
297 24-09-2020 00:40:00 17.6 C 11.7 g/m*3 17.6 C 6.4 km/h
298 24-09-2020 00:45:00 17.7 C 11.77 g/m*3 17.7 C 8.1 km/h
299 24-09-2020 00:50:00 17.8 C 11.84 g/m*3 17.8 C 3.2 km/h
300 24-09-2020 00:55:00 17.8 C 11.84 g/m*3 17.8 C 6.4 km/h
Sensor: Nr:Datum:Temp:Abs-Feuchte:Windchill:Wind:
Aussen-T/F 301 24-09-2020 01:00:00 18.1 C 11.9 g/m*3 18.1 C 4.8 km/h
302 24-09-2020 01:05:00 18.2 C 11.81 g/m*3 18.2 C 0 km/h
303 24-09-2020 01:10:00 18.1 C 11.74 g/m*3 18.1 C 1.6 km/h
304 24-09-2020 01:15:00 18.1 C 11.9 g/m*3 18.1 C 6.4 km/h
305 24-09-2020 01:20:00 18.1 C 11.9 g/m*3 18.1 C 1.6 km/h
306 24-09-2020 01:25:00 18.1 C 11.9 g/m*3 18.1 C 1.6 km/h
307 24-09-2020 01:30:00 18.1 C 11.9 g/m*3 18.1 C 4.8 km/h
308 24-09-2020 01:35:00 18.3 C 11.88 g/m*3 18.3 C 4.8 km/h
309 24-09-2020 01:40:00 18.4 C 11.95 g/m*3 18.4 C 1.6 km/h
310 24-09-2020 01:45:00 18.6 C 12.1 g/m*3 18.6 C 8.1 km/h
311 24-09-2020 01:50:00 18.7 C 12.49 g/m*3 18.7 C 14.5 km/h
312 24-09-2020 01:55:00 18.6 C 12.41 g/m*3 18.6 C 8.1 km/h
313 24-09-2020 02:00:00 18.5 C 12.5 g/m*3 18.5 C 12.9 km/h
314 24-09-2020 02:05:00 18.4 C 12.58 g/m*3 18.4 C 9.7 km/h
315 24-09-2020 02:10:00 18.3 C 12.82 g/m*3 18.3 C 8.1 km/h
316 24-09-2020 02:15:00 18.2 C 12.9 g/m*3 18.2 C 4.8 km/h
317 24-09-2020 02:20:00 17.9 C 12.98 g/m*3 17.9 C 4.8 km/h
318 24-09-2020 02:25:00 17.7 C 12.98 g/m*3 17.7 C 0 km/h
319 24-09-2020 02:30:00 17.4 C 12.89 g/m*3 17.4 C 1.6 km/h
320 24-09-2020 02:35:00 17.2 C 12.89 g/m*3 17.2 C 4.8 km/h
321 24-09-2020 02:40:00 17.1 C 12.81 g/m*3 17.1 C 4.8 km/h
322 24-09-2020 02:45:00 16.8 C 12.72 g/m*3 16.8 C 1.6 km/h
323 24-09-2020 02:50:00 16.7 C 12.79 g/m*3 16.7 C 1.6 km/h
324 24-09-2020 02:55:00 16.6 C 12.71 g/m*3 16.6 C 3.2 km/h
325 24-09-2020 03:00:00 16.5 C 12.78 g/m*3 16.5 C 1.6 km/h
Sensor: Nr:Datum:Temp:Abs-Feuchte:Windchill:Wind:
Aussen-T/F 326 24-09-2020 03:05:00 16.4 C 12.7 g/m*3 16.4 C 1.6 km/h
327 24-09-2020 03:10:00 16.4 C 12.7 g/m*3 16.4 C 0 km/h
328 24-09-2020 03:15:00 16.3 C 12.62 g/m*3 16.3 C 0 km/h
329 24-09-2020 03:20:00 16.3 C 12.76 g/m*3 16.3 C 0 km/h
330 24-09-2020 03:25:00 16.2 C 12.69 g/m*3 16.2 C 0 km/h
331 24-09-2020 03:30:00 16.1 C 12.61 g/m*3 16.1 C 1.6 km/h
332 24-09-2020 03:35:00 16.1 C 12.61 g/m*3 16.1 C 0 km/h
333 24-09-2020 03:40:00 16.1 C 12.61 g/m*3 16.1 C 1.6 km/h
334 24-09-2020 03:45:00 16 C 12.67 g/m*3 16 C 3.2 km/h
335 24-09-2020 03:50:00 15.9 C 12.59 g/m*3 15.9 C 4.8 km/h
336 24-09-2020 03:55:00 15.9 C 12.59 g/m*3 15.9 C 0 km/h
337 24-09-2020 04:00:00 15.9 C 12.59 g/m*3 15.9 C 3.2 km/h
338 24-09-2020 04:05:00 15.9 C 12.59 g/m*3 15.9 C 0 km/h
339 24-09-2020 04:10:00 16 C 12.81 g/m*3 16 C 0 km/h
340 24-09-2020 04:15:00 16.1 C 12.88 g/m*3 16.1 C 1.6 km/h
341 24-09-2020 04:20:00 16.1 C 12.88 g/m*3 16.1 C 1.6 km/h
342 24-09-2020 04:25:00 16.1 C 12.88 g/m*3 16.1 C 3.2 km/h
343 24-09-2020 04:30:00 16.1 C 12.88 g/m*3 16.1 C 0 km/h
344 24-09-2020 04:35:00 16.1 C 12.88 g/m*3 16.1 C 3.2 km/h
345 24-09-2020 04:40:00 16.1 C 12.88 g/m*3 16.1 C 1.6 km/h
346 24-09-2020 04:45:00 16.1 C 12.88 g/m*3 16.1 C 3.2 km/h
347 24-09-2020 04:50:00 16 C 12.81 g/m*3 16 C 1.6 km/h
348 24-09-2020 04:55:00 15.9 C 12.73 g/m*3 15.9 C 3.2 km/h
349 24-09-2020 05:00:00 15.9 C 12.73 g/m*3 15.9 C 1.6 km/h
350 24-09-2020 05:05:00 15.9 C 12.73 g/m*3 15.9 C 4.8 km/h
Sensor: Nr:Datum:Temp:Abs-Feuchte:Windchill:Wind:
Aussen-T/F 351 24-09-2020 05:10:00 15.9 C 12.73 g/m*3 15.9 C 3.2 km/h
352 24-09-2020 05:15:00 15.9 C 12.73 g/m*3 15.9 C 3.2 km/h
353 24-09-2020 05:20:00 15.9 C 12.73 g/m*3 15.9 C 3.2 km/h
354 24-09-2020 05:25:00 15.8 C 12.65 g/m*3 15.8 C 4.8 km/h
355 24-09-2020 05:30:00 15.8 C 12.65 g/m*3 15.8 C 4.8 km/h
356 24-09-2020 05:35:00 15.9 C 12.73 g/m*3 15.9 C 9.7 km/h
357 24-09-2020 05:40:00 16 C 12.81 g/m*3 16 C 16.1 km/h
358 24-09-2020 05:45:00 16.1 C 12.88 g/m*3 16.1 C 11.3 km/h
359 24-09-2020 05:50:00 16.2 C 12.82 g/m*3 16.2 C 8.1 km/h
360 24-09-2020 05:55:00 16.1 C 12.75 g/m*3 16.1 C 12.9 km/h
361 24-09-2020 06:00:00 16 C 12.53 g/m*3 16 C 12.9 km/h
362 24-09-2020 06:05:00 15.9 C 12.46 g/m*3 15.9 C 9.7 km/h
363 24-09-2020 06:10:00 15.6 C 11.97 g/m*3 15.6 C 11.3 km/h
364 24-09-2020 06:15:00 15.3 C 11.36 g/m*3 15.3 C 11.3 km/h
365 24-09-2020 06:20:00 14.9 C 10.96 g/m*3 14.9 C 12.9 km/h
366 24-09-2020 06:25:00 14.6 C 10.51 g/m*3 14.6 C 11.3 km/h
367 24-09-2020 06:30:00 14.3 C 10.2 g/m*3 14.3 C 11.3 km/h
368 24-09-2020 06:35:00 13.9 C 9.59 g/m*3 13.9 C 12.9 km/h
369 24-09-2020 06:40:00 13.8 C 9.77 g/m*3 13.8 C 4.8 km/h
370 24-09-2020 06:45:00 13.6 C 9.89 g/m*3 13.6 C 8.1 km/h
371 24-09-2020 06:50:00 13.4 C 9.88 g/m*3 13.4 C 6.4 km/h
372 24-09-2020 06:55:00 13.2 C 9.87 g/m*3 13.2 C 8.1 km/h
373 24-09-2020 07:00:00 12.9 C 9.81 g/m*3 12.9 C 8.1 km/h
374 24-09-2020 07:05:00 12.7 C 9.68 g/m*3 12.7 C 8.1 km/h
375 24-09-2020 07:10:00 12.4 C 9.62 g/m*3 12.4 C 6.4 km/h
Sensor: Nr:Datum:Temp:Abs-Feuchte:Windchill:Wind:
Aussen-T/F 376 24-09-2020 07:15:00 12.3 C 9.56 g/m*3 12.3 C 6.4 km/h
377 24-09-2020 07:20:00 12.1 C 9.54 g/m*3 12.1 C 6.4 km/h
378 24-09-2020 07:25:00 11.9 C 9.43 g/m*3 11.9 C 8.1 km/h
379 24-09-2020 07:30:00 11.8 C 9.47 g/m*3 11.8 C 6.4 km/h
380 24-09-2020 07:35:00 11.7 C 9.41 g/m*3 11.7 C 6.4 km/h
381 24-09-2020 07:40:00 11.6 C 9.46 g/m*3 11.6 C 6.4 km/h
382 24-09-2020 07:45:00 11.6 C 9.46 g/m*3 11.6 C 3.2 km/h
383 24-09-2020 07:50:00 11.6 C 9.56 g/m*3 11.6 C 4.8 km/h
384 24-09-2020 07:55:00 11.7 C 9.62 g/m*3 11.7 C 8.1 km/h
385 24-09-2020 08:00:00 11.9 C 9.64 g/m*3 11.9 C 8.1 km/h
386 24-09-2020 08:05:00 12 C 9.7 g/m*3 12 C 6.4 km/h
387 24-09-2020 08:10:00 12.1 C 9.65 g/m*3 12.1 C 9.7 km/h
388 24-09-2020 08:15:00 12.2 C 9.6 g/m*3 12.2 C 9.7 km/h
389 24-09-2020 08:20:00 12.2 C 9.6 g/m*3 12.2 C 12.9 km/h
390 24-09-2020 08:25:00 12.3 C 9.56 g/m*3 12.3 C 11.3 km/h
391 24-09-2020 08:30:00 12.4 C 9.62 g/m*3 12.4 C 9.7 km/h
392 24-09-2020 08:35:00 12.4 C 9.62 g/m*3 12.4 C 8.1 km/h
393 24-09-2020 08:40:00 12.4 C 9.62 g/m*3 12.4 C 3.2 km/h
394 24-09-2020 08:45:00 12.4 C 9.62 g/m*3 12.4 C 4.8 km/h
395 24-09-2020 08:50:00 12.4 C 9.62 g/m*3 12.4 C 6.4 km/h
396 24-09-2020 08:55:00 12.3 C 9.56 g/m*3 12.3 C 6.4 km/h
397 24-09-2020 09:00:00 12.3 C 9.56 g/m*3 12.3 C 3.2 km/h
398 24-09-2020 09:05:00 12.3 C 9.56 g/m*3 12.3 C 9.7 km/h
399 24-09-2020 09:10:00 12.3 C 9.56 g/m*3 12.3 C 8.1 km/h
400 24-09-2020 09:15:00 12.3 C 9.56 g/m*3 12.3 C 8.1 km/h
Sensor: Nr:Datum:Temp:Abs-Feuchte:Windchill:Wind:
Aussen-T/F 401 24-09-2020 09:20:00 12.3 C 9.56 g/m*3 12.3 C 3.2 km/h
402 24-09-2020 09:25:00 12.4 C 9.62 g/m*3 12.4 C 12.9 km/h
403 24-09-2020 09:30:00 12.6 C 9.51 g/m*3 12.6 C 20.9 km/h
404 24-09-2020 09:35:00 12.7 C 9.46 g/m*3 12.7 C 11.3 km/h
405 24-09-2020 09:40:00 12.8 C 9.3 g/m*3 12.8 C 14.5 km/h
406 24-09-2020 09:45:00 13.1 C 9.47 g/m*3 13.1 C 14.5 km/h
407 24-09-2020 09:50:00 13.2 C 9.42 g/m*3 13.2 C 14.5 km/h
408 24-09-2020 09:55:00 13.3 C 9.47 g/m*3 13.3 C 9.7 km/h
409 24-09-2020 10:00:00 13.3 C 9.36 g/m*3 13.3 C 14.5 km/h
410 24-09-2020 10:05:00 13.3 C 9.24 g/m*3 13.3 C 12.9 km/h
411 24-09-2020 10:10:00 13.4 C 9.3 g/m*3 13.4 C 12.9 km/h
412 24-09-2020 10:15:00 13.4 C 9.3 g/m*3 13.4 C 9.7 km/h
413 24-09-2020 10:20:00 13.6 C 9.3 g/m*3 13.6 C 12.9 km/h
414 24-09-2020 10:25:00 13.7 C 9.35 g/m*3 13.7 C 14.5 km/h
415 24-09-2020 10:30:00 13.7 C 9.35 g/m*3 13.7 C 11.3 km/h
416 24-09-2020 10:35:00 13.8 C 9.29 g/m*3 13.8 C 16.1 km/h
417 24-09-2020 10:40:00 13.9 C 9.23 g/m*3 13.9 C 16.1 km/h
418 24-09-2020 10:45:00 14 C 9.29 g/m*3 14 C 8.1 km/h
419 24-09-2020 10:50:00 14.1 C 9.34 g/m*3 14.1 C 8.1 km/h
420 24-09-2020 10:55:00 14.2 C 9.4 g/m*3 14.2 C 9.7 km/h
421 24-09-2020 11:00:00 14.2 C 9.28 g/m*3 14.2 C 11.3 km/h
422 24-09-2020 11:05:00 14.2 C 9.16 g/m*3 14.2 C 11.3 km/h
423 24-09-2020 11:10:00 14.2 C 9.16 g/m*3 14.2 C 14.5 km/h
424 24-09-2020 11:15:00 14.3 C 8.97 g/m*3 14.3 C 12.9 km/h
425 24-09-2020 11:20:00 14.4 C 9.02 g/m*3 14.4 C 9.7 km/h
Sensor: Nr:Datum:Temp:Abs-Feuchte:Windchill:Wind:
Aussen-T/F 426 24-09-2020 11:25:00 14.6 C 9.13 g/m*3 14.6 C 11.3 km/h
427 24-09-2020 11:30:00 14.7 C 8.94 g/m*3 14.7 C 12.9 km/h
428 24-09-2020 11:35:00 14.9 C 9.18 g/m*3 14.9 C 14.5 km/h
429 24-09-2020 11:40:00 15.1 C 9.03 g/m*3 15.1 C 12.9 km/h
430 24-09-2020 11:45:00 15.3 C 9.01 g/m*3 15.3 C 17.7 km/h
431 24-09-2020 11:50:00 15.4 C 9.07 g/m*3 15.4 C 11.3 km/h
432 24-09-2020 11:55:00 15.6 C 9.18 g/m*3 15.6 C 11.3 km/h
433 24-09-2020 12:00:00 15.9 C 9.21 g/m*3 15.9 C 11.3 km/h
434 24-09-2020 12:05:00 16.1 C 9.32 g/m*3 16.1 C 8.1 km/h
435 24-09-2020 12:10:00 16.3 C 9.43 g/m*3 16.3 C 9.7 km/h
436 24-09-2020 12:15:00 16.6 C 9.32 g/m*3 16.6 C 17.7 km/h
437 24-09-2020 12:20:00 16.8 C 9.29 g/m*3 16.8 C 8.1 km/h
438 24-09-2020 12:25:00 17.1 C 9.32 g/m*3 17.1 C 9.7 km/h
439 24-09-2020 12:30:00 17.2 C 9.23 g/m*3 17.2 C 11.3 km/h
440 24-09-2020 12:35:00 17.2 C 8.93 g/m*3 17.2 C 12.9 km/h
441 24-09-2020 12:40:00 17.3 C 9.13 g/m*3 17.3 C 9.7 km/h
442 24-09-2020 12:45:00 17.3 C 9.13 g/m*3 17.3 C 9.7 km/h
443 24-09-2020 12:50:00 17.4 C 9.04 g/m*3 17.4 C 12.9 km/h
444 24-09-2020 12:55:00 17.4 C 9.04 g/m*3 17.4 C 12.9 km/h
445 24-09-2020 13:00:00 17.4 C 8.89 g/m*3 17.4 C 16.1 km/h
446 24-09-2020 13:05:00 17.4 C 9.04 g/m*3 17.4 C 12.9 km/h
447 24-09-2020 13:10:00 17.4 C 8.89 g/m*3 17.4 C 17.7 km/h
448 24-09-2020 13:15:00 17.6 C 9 g/m*3 17.6 C 14.5 km/h
449 24-09-2020 13:20:00 17.6 C 9.15 g/m*3 17.6 C 11.3 km/h
450 24-09-2020 13:25:00 17.6 C 9.15 g/m*3 17.6 C 14.5 km/h
Sensor: Nr:Datum:Temp:Abs-Feuchte:Windchill:Wind:
Aussen-T/F 451 24-09-2020 13:30:00 17.6 C 8.85 g/m*3 17.6 C 17.7 km/h
452 24-09-2020 13:35:00 17.7 C 9.05 g/m*3 17.7 C 12.9 km/h
453 24-09-2020 13:40:00 17.8 C 9.11 g/m*3 17.8 C 17.7 km/h
454 24-09-2020 13:45:00 18.1 C 9.27 g/m*3 18.1 C 12.9 km/h
455 24-09-2020 13:50:00 18.2 C 9.01 g/m*3 18.2 C 16.1 km/h
456 24-09-2020 13:55:00 18.4 C 9.28 g/m*3 18.4 C 17.7 km/h
457 24-09-2020 14:00:00 18.6 C 9.23 g/m*3 18.6 C 16.1 km/h
458 24-09-2020 14:05:00 18.5 C 9.02 g/m*3 18.5 C 14.5 km/h
459 24-09-2020 14:10:00 18.5 C 9.02 g/m*3 18.5 C 16.1 km/h
460 24-09-2020 14:15:00 18.7 C 9.13 g/m*3 18.7 C 14.5 km/h
461 24-09-2020 14:20:00 18.8 C 9.34 g/m*3 18.8 C 8.1 km/h
462 24-09-2020 14:25:00 19.1 C 9.34 g/m*3 19.1 C 16.1 km/h
463 24-09-2020 14:30:00 19.2 C 9.07 g/m*3 19.2 C 16.1 km/h
464 24-09-2020 14:35:00 19.3 C 8.96 g/m*3 19.3 C 16.1 km/h
465 24-09-2020 14:40:00 19.3 C 8.96 g/m*3 19.3 C 19.3 km/h
466 24-09-2020 14:45:00 19.3 C 8.96 g/m*3 19.3 C 11.3 km/h
467 24-09-2020 14:50:00 19.3 C 8.96 g/m*3 19.3 C 11.3 km/h
468 24-09-2020 14:55:00 19.3 C 8.96 g/m*3 19.3 C 12.9 km/h
469 24-09-2020 15:00:00 19.3 C 9.12 g/m*3 19.3 C 12.9 km/h
470 24-09-2020 15:05:00 19.3 C 9.29 g/m*3 19.3 C 8.1 km/h
471 24-09-2020 15:10:00 19.3 C 9.45 g/m*3 19.3 C 14.5 km/h
472 24-09-2020 15:15:00 19.4 C 9.34 g/m*3 19.4 C 4.8 km/h
473 24-09-2020 15:20:00 19.4 C 9.01 g/m*3 19.4 C 4.8 km/h
474 24-09-2020 15:25:00 19.6 C 9.45 g/m*3 19.6 C 4.8 km/h
475 24-09-2020 15:30:00 19.7 C 9.34 g/m*3 19.7 C 9.7 km/h
Sensor: Nr:Datum:Temp:Abs-Feuchte:Windchill:Wind:
Aussen-T/F 476 24-09-2020 15:35:00 19.8 C 9.22 g/m*3 19.8 C 12.9 km/h
477 24-09-2020 15:40:00 19.8 C 9.22 g/m*3 19.8 C 11.3 km/h
478 24-09-2020 15:45:00 19.7 C 9.17 g/m*3 19.7 C 11.3 km/h
479 24-09-2020 15:50:00 19.8 C 9.39 g/m*3 19.8 C 9.7 km/h
480 24-09-2020 15:55:00 19.8 C 9.39 g/m*3 19.8 C 12.9 km/h
481 24-09-2020 16:00:00 19.8 C 9.39 g/m*3 19.8 C 14.5 km/h
482 24-09-2020 16:05:00 19.7 C 9.34 g/m*3 19.7 C 11.3 km/h
483 24-09-2020 16:10:00 19.6 C 9.12 g/m*3 19.6 C 8.1 km/h
484 24-09-2020 16:15:00 19.5 C 9.4 g/m*3 19.5 C 8.1 km/h
485 24-09-2020 16:20:00 19.5 C 9.4 g/m*3 19.5 C 4.8 km/h
486 24-09-2020 16:25:00 19.4 C 9.34 g/m*3 19.4 C 8.1 km/h
487 24-09-2020 16:30:00 19.5 C 9.57 g/m*3 19.5 C 8.1 km/h
488 24-09-2020 16:35:00 19.6 C 9.45 g/m*3 19.6 C 6.4 km/h
489 24-09-2020 16:40:00 19.8 C 9.57 g/m*3 19.8 C 1.6 km/h
490 24-09-2020 16:45:00 19.9 C 9.79 g/m*3 19.9 C 3.2 km/h
491 24-09-2020 16:50:00 20.1 C 9.73 g/m*3 20.1 C 8.1 km/h
492 24-09-2020 16:55:00 20.2 C 9.79 g/m*3 20.2 C 4.8 km/h
493 24-09-2020 17:00:00 20.2 C 9.79 g/m*3 20.2 C 6.4 km/h
494 24-09-2020 17:05:00 20.2 C 9.97 g/m*3 20.2 C 6.4 km/h
495 24-09-2020 17:10:00 19.9 C 9.62 g/m*3 19.9 C 6.4 km/h
496 24-09-2020 17:15:00 19.8 C 9.57 g/m*3 19.8 C 4.8 km/h
497 24-09-2020 17:20:00 19.7 C 9.85 g/m*3 19.7 C 4.8 km/h
498 24-09-2020 17:25:00 19.7 C 9.85 g/m*3 19.7 C 6.4 km/h
499 24-09-2020 17:30:00 19.7 C 9.85 g/m*3 19.7 C 3.2 km/h
500 24-09-2020 17:35:00 19.7 C 9.85 g/m*3 19.7 C 6.4 km/h
Sensor: Nr:Datum:Temp:Abs-Feuchte:Windchill:Wind:
Aussen-T/F 501 24-09-2020 17:40:00 19.6 C 9.96 g/m*3 19.6 C 3.2 km/h
502 24-09-2020 17:45:00 19.6 C 9.96 g/m*3 19.6 C 0 km/h
503 24-09-2020 17:50:00 19.6 C 10.3 g/m*3 19.6 C 1.6 km/h
504 24-09-2020 17:55:00 19.6 C 9.96 g/m*3 19.6 C 4.8 km/h
505 24-09-2020 18:00:00 19.5 C 10.07 g/m*3 19.5 C 1.6 km/h
506 24-09-2020 18:05:00 19.4 C 10.18 g/m*3 19.4 C 1.6 km/h
507 24-09-2020 18:10:00 19.3 C 10.28 g/m*3 19.3 C 4.8 km/h
508 24-09-2020 18:15:00 19.2 C 10.22 g/m*3 19.2 C 0 km/h
509 24-09-2020 18:20:00 19.1 C 10.33 g/m*3 19.1 C 0 km/h
510 24-09-2020 18:25:00 19.1 C 10.33 g/m*3 19.1 C 6.4 km/h
511 24-09-2020 18:30:00 19 C 10.92 g/m*3 19 C 1.6 km/h
512 24-09-2020 18:35:00 18.9 C 11.18 g/m*3 18.9 C 0 km/h
513 24-09-2020 18:40:00 18.6 C 10.98 g/m*3 18.6 C 0 km/h
514 24-09-2020 18:45:00 18.3 C 10.94 g/m*3 18.3 C 1.6 km/h
515 24-09-2020 18:50:00 18.1 C 10.97 g/m*3 18.1 C 0 km/h
516 24-09-2020 18:55:00 17.8 C 10.93 g/m*3 17.8 C 8.1 km/h
517 24-09-2020 19:00:00 17.7 C 11.01 g/m*3 17.7 C 6.4 km/h
518 24-09-2020 19:05:00 17.6 C 11.1 g/m*3 17.6 C 0 km/h
519 24-09-2020 19:10:00 17.4 C 11.12 g/m*3 17.4 C 3.2 km/h
520 24-09-2020 19:15:00 17.3 C 10.9 g/m*3 17.3 C 4.8 km/h
521 24-09-2020 19:20:00 17.2 C 11.13 g/m*3 17.2 C 3.2 km/h
522 24-09-2020 19:25:00 17.1 C 11.06 g/m*3 17.1 C 0 km/h
523 24-09-2020 19:30:00 16.9 C 10.93 g/m*3 16.9 C 1.6 km/h
524 24-09-2020 19:35:00 16.8 C 11.01 g/m*3 16.8 C 1.6 km/h
525 24-09-2020 19:40:00 16.7 C 10.94 g/m*3 16.7 C 0 km/h
Sensor: Nr:Datum:Temp:Abs-Feuchte:Windchill:Wind:
Aussen-T/F 526 24-09-2020 19:45:00 16.7 C 10.94 g/m*3 16.7 C 4.8 km/h
527 24-09-2020 19:50:00 16.6 C 11.02 g/m*3 16.6 C 0 km/h
528 24-09-2020 19:55:00 16.6 C 11.02 g/m*3 16.6 C 1.6 km/h
529 24-09-2020 20:00:00 16.5 C 10.95 g/m*3 16.5 C 1.6 km/h
530 24-09-2020 20:05:00 16.4 C 10.89 g/m*3 16.4 C 1.6 km/h
531 24-09-2020 20:10:00 16.3 C 10.82 g/m*3 16.3 C 4.8 km/h
532 24-09-2020 20:15:00 16.3 C 10.96 g/m*3 16.3 C 1.6 km/h
533 24-09-2020 20:20:00 16.2 C 10.89 g/m*3 16.2 C 0 km/h
534 24-09-2020 20:25:00 16.1 C 10.83 g/m*3 16.1 C 1.6 km/h
535 24-09-2020 20:30:00 16 C 10.76 g/m*3 16 C 3.2 km/h
536 24-09-2020 20:35:00 15.9 C 10.83 g/m*3 15.9 C 0 km/h
537 24-09-2020 20:40:00 15.9 C 10.83 g/m*3 15.9 C 6.4 km/h
538 24-09-2020 20:45:00 15.8 C 10.77 g/m*3 15.8 C 3.2 km/h
539 24-09-2020 20:50:00 15.8 C 10.9 g/m*3 15.8 C 3.2 km/h
540 24-09-2020 20:55:00 15.7 C 10.84 g/m*3 15.7 C 0 km/h
541 24-09-2020 21:00:00 15.6 C 10.77 g/m*3 15.6 C 0 km/h
542 24-09-2020 21:05:00 15.5 C 10.71 g/m*3 15.5 C 0 km/h
543 24-09-2020 21:10:00 15.4 C 10.64 g/m*3 15.4 C 1.6 km/h
544 24-09-2020 21:15:00 15.3 C 10.71 g/m*3 15.3 C 1.6 km/h
545 24-09-2020 21:20:00 15.2 C 10.64 g/m*3 15.2 C 3.2 km/h
546 24-09-2020 21:25:00 15.1 C 10.71 g/m*3 15.1 C 0 km/h
547 24-09-2020 21:30:00 14.9 C 10.58 g/m*3 14.9 C 0 km/h
548 24-09-2020 21:35:00 14.8 C 10.51 g/m*3 14.8 C 0 km/h
549 24-09-2020 21:40:00 14.8 C 10.64 g/m*3 14.8 C 3.2 km/h
550 24-09-2020 21:45:00 14.7 C 10.58 g/m*3 14.7 C 3.2 km/h
Sensor: Nr:Datum:Temp:Abs-Feuchte:Windchill:Wind:
Aussen-T/F 551 24-09-2020 21:50:00 14.7 C 10.58 g/m*3 14.7 C 0 km/h
552 24-09-2020 21:55:00 14.6 C 10.64 g/m*3 14.6 C 1.6 km/h
553 24-09-2020 22:00:00 14.6 C 10.64 g/m*3 14.6 C 0 km/h
554 24-09-2020 22:05:00 14.6 C 10.64 g/m*3 14.6 C 0 km/h
555 24-09-2020 22:10:00 14.6 C 10.76 g/m*3 14.6 C 0 km/h
556 24-09-2020 22:15:00 14.5 C 10.7 g/m*3 14.5 C 0 km/h
557 24-09-2020 22:20:00 14.5 C 10.7 g/m*3 14.5 C 1.6 km/h
558 24-09-2020 22:25:00 14.4 C 10.63 g/m*3 14.4 C 1.6 km/h
559 24-09-2020 22:30:00 14.4 C 10.63 g/m*3 14.4 C 0 km/h
560 24-09-2020 22:35:00 14.3 C 10.57 g/m*3 14.3 C 0 km/h
561 24-09-2020 22:40:00 14.3 C 10.69 g/m*3 14.3 C 3.2 km/h
562 24-09-2020 22:45:00 14.3 C 10.69 g/m*3 14.3 C 3.2 km/h
563 24-09-2020 22:50:00 14.2 C 10.62 g/m*3 14.2 C 1.6 km/h
564 24-09-2020 22:55:00 14.2 C 10.62 g/m*3 14.2 C 0 km/h
565 24-09-2020 23:00:00 14.1 C 10.56 g/m*3 14.1 C 0 km/h
566 24-09-2020 23:05:00 14 C 10.49 g/m*3 14 C 1.6 km/h
567 24-09-2020 23:10:00 13.9 C 10.55 g/m*3 13.9 C 0 km/h
568 24-09-2020 23:15:00 13.8 C 10.48 g/m*3 13.8 C 0 km/h
569 24-09-2020 23:20:00 13.8 C 10.48 g/m*3 13.8 C 0 km/h
570 24-09-2020 23:25:00 13.7 C 10.42 g/m*3 13.7 C 0 km/h
571 24-09-2020 23:30:00 13.7 C 10.54 g/m*3 13.7 C 0 km/h
572 24-09-2020 23:35:00 13.7 C 10.42 g/m*3 13.7 C 0 km/h
573 24-09-2020 23:40:00 13.6 C 10.47 g/m*3 13.6 C 4.8 km/h
574 24-09-2020 23:45:00 13.7 C 10.54 g/m*3 13.7 C 4.8 km/h
575 24-09-2020 23:50:00 13.6 C 10.47 g/m*3 13.6 C 0 km/h
Sensor: Nr:Datum:Temp:Abs-Feuchte:Windchill:Wind:
Aussen-T/F 576 24-09-2020 23:55:00 13.6 C 10.47 g/m*3 13.6 C 0 km/h
577 25-09-2020 00:00:00 13.6 C 10.47 g/m*3 13.6 C 0 km/h
578 25-09-2020 00:05:00 13.6 C 10.59 g/m*3 13.6 C 0 km/h
579 25-09-2020 00:10:00 13.6 C 10.47 g/m*3 13.6 C 0 km/h
580 25-09-2020 00:15:00 13.5 C 10.53 g/m*3 13.5 C 0 km/h
581 25-09-2020 00:20:00 13.6 C 10.59 g/m*3 13.6 C 1.6 km/h
582 25-09-2020 00:25:00 13.6 C 10.59 g/m*3 13.6 C 0 km/h
583 25-09-2020 00:30:00 13.7 C 10.66 g/m*3 13.7 C 0 km/h
584 25-09-2020 00:35:00 13.7 C 10.66 g/m*3 13.7 C 0 km/h
585 25-09-2020 00:40:00 13.8 C 10.72 g/m*3 13.8 C 0 km/h
586 25-09-2020 00:45:00 13.8 C 10.72 g/m*3 13.8 C 0 km/h
587 25-09-2020 00:50:00 13.8 C 10.72 g/m*3 13.8 C 0 km/h
588 25-09-2020 00:55:00 13.8 C 10.72 g/m*3 13.8 C 0 km/h
589 25-09-2020 01:00:00 13.9 C 10.79 g/m*3 13.9 C 1.6 km/h
590 25-09-2020 01:05:00 13.9 C 10.79 g/m*3 13.9 C 3.2 km/h
591 25-09-2020 01:10:00 13.9 C 10.79 g/m*3 13.9 C 3.2 km/h
592 25-09-2020 01:15:00 13.9 C 10.79 g/m*3 13.9 C 0 km/h
593 25-09-2020 01:20:00 14 C 10.86 g/m*3 14 C 0 km/h
594 25-09-2020 01:25:00 14 C 10.86 g/m*3 14 C 1.6 km/h
595 25-09-2020 01:30:00 14 C 10.86 g/m*3 14 C 0 km/h
596 25-09-2020 01:35:00 14 C 10.86 g/m*3 14 C 0 km/h
597 25-09-2020 01:40:00 13.9 C 10.79 g/m*3 13.9 C 0 km/h
598 25-09-2020 01:45:00 13.9 C 10.79 g/m*3 13.9 C 0 km/h
599 25-09-2020 01:50:00 13.9 C 10.67 g/m*3 13.9 C 1.6 km/h
600 25-09-2020 01:55:00 13.8 C 10.6 g/m*3 13.8 C 0 km/h
Sensor: Nr:Datum:Temp:Abs-Feuchte:Windchill:Wind:
Aussen-T/F 601 25-09-2020 02:00:00 13.8 C 10.72 g/m*3 13.8 C 0 km/h
602 25-09-2020 02:05:00 13.8 C 10.72 g/m*3 13.8 C 0 km/h
603 25-09-2020 02:10:00 13.8 C 10.72 g/m*3 13.8 C 1.6 km/h
604 25-09-2020 02:15:00 13.8 C 10.72 g/m*3 13.8 C 4.8 km/h
605 25-09-2020 02:20:00 14 C 10.74 g/m*3 14 C 4.8 km/h
606 25-09-2020 02:25:00 14.1 C 10.8 g/m*3 14.1 C 3.2 km/h
607 25-09-2020 02:30:00 14.2 C 10.87 g/m*3 14.2 C 14.5 km/h
608 25-09-2020 02:35:00 14.2 C 10.5 g/m*3 14.2 C 25.7 km/h
609 25-09-2020 02:40:00 13.8 C 10.37 g/m*3 13.8 C 25.7 km/h
610 25-09-2020 02:45:00 13.4 C 10.11 g/m*3 13.4 C 14.5 km/h
611 25-09-2020 02:50:00 13.1 C 10.04 g/m*3 13.1 C 14.5 km/h
612 25-09-2020 02:55:00 12.8 C 9.97 g/m*3 12.8 C 11.3 km/h
613 25-09-2020 03:00:00 12.7 C 10.02 g/m*3 12.7 C 9.7 km/h
614 25-09-2020 03:05:00 12.5 C 9.89 g/m*3 12.5 C 12.9 km/h
615 25-09-2020 03:10:00 12.4 C 9.94 g/m*3 12.4 C 9.7 km/h
616 25-09-2020 03:15:00 12.4 C 10.05 g/m*3 12.4 C 9.7 km/h
617 25-09-2020 03:20:00 12.3 C 9.99 g/m*3 12.3 C 12.9 km/h
618 25-09-2020 03:25:00 12.2 C 9.93 g/m*3 12.2 C 11.3 km/h
619 25-09-2020 03:30:00 12.2 C 9.93 g/m*3 12.2 C 3.2 km/h
620 25-09-2020 03:35:00 12.1 C 9.87 g/m*3 12.1 C 6.4 km/h
621 25-09-2020 03:40:00 11.9 C 9.74 g/m*3 11.9 C 9.7 km/h
622 25-09-2020 03:45:00 11.8 C 9.58 g/m*3 11.8 C 6.4 km/h
623 25-09-2020 03:50:00 11.7 C 9.52 g/m*3 11.7 C 6.4 km/h
624 25-09-2020 03:55:00 11.6 C 9.46 g/m*3 11.6 C 4.8 km/h
625 25-09-2020 04:00:00 11.5 C 9.5 g/m*3 11.5 C 6.4 km/h
Sensor: Nr:Datum:Temp:Abs-Feuchte:Windchill:Wind:
Aussen-T/F 626 25-09-2020 04:05:00 11.4 C 9.44 g/m*3 11.4 C 6.4 km/h
627 25-09-2020 04:10:00 11.4 C 9.44 g/m*3 11.4 C 1.6 km/h
628 25-09-2020 04:15:00 11.4 C 9.44 g/m*3 11.4 C 0 km/h
629 25-09-2020 04:20:00 11.3 C 9.38 g/m*3 11.3 C 0 km/h
630 25-09-2020 04:25:00 11.3 C 9.49 g/m*3 11.3 C 1.6 km/h
631 25-09-2020 04:30:00 11.3 C 9.49 g/m*3 11.3 C 6.4 km/h
632 25-09-2020 04:35:00 11.3 C 9.49 g/m*3 11.3 C 3.2 km/h
633 25-09-2020 04:40:00 11.2 C 9.43 g/m*3 11.2 C 3.2 km/h
634 25-09-2020 04:45:00 11.1 C 9.27 g/m*3 11.1 C 6.4 km/h
635 25-09-2020 04:50:00 11.1 C 9.37 g/m*3 11.1 C 3.2 km/h
636 25-09-2020 04:55:00 11 C 9.31 g/m*3 11 C 3.2 km/h
637 25-09-2020 05:00:00 10.9 C 9.25 g/m*3 10.41 C 6.4 km/h
638 25-09-2020 05:05:00 10.8 C 9.19 g/m*3 10.8 C 4.8 km/h
639 25-09-2020 05:10:00 10.8 C 9.19 g/m*3 10.8 C 3.2 km/h
640 25-09-2020 05:15:00 10.7 C 9.13 g/m*3 10.7 C 0 km/h
641 25-09-2020 05:20:00 10.7 C 9.13 g/m*3 10.7 C 4.8 km/h
642 25-09-2020 05:25:00 10.7 C 9.13 g/m*3 10.7 C 1.6 km/h
643 25-09-2020 05:30:00 10.7 C 9.13 g/m*3 9.81 C 8.1 km/h
644 25-09-2020 05:35:00 10.7 C 9.13 g/m*3 10.7 C 3.2 km/h
645 25-09-2020 05:40:00 10.8 C 9.29 g/m*3 10.8 C 3.2 km/h
646 25-09-2020 05:45:00 10.8 C 9.29 g/m*3 10.29 C 6.4 km/h
647 25-09-2020 05:50:00 10.8 C 9.29 g/m*3 10.29 C 6.4 km/h
648 25-09-2020 05:55:00 10.8 C 9.19 g/m*3 10.8 C 4.8 km/h
649 25-09-2020 06:00:00 10.8 C 9.19 g/m*3 10.8 C 4.8 km/h
650 25-09-2020 06:05:00 10.8 C 9.19 g/m*3 10.29 C 6.4 km/h
Sensor: Nr:Datum:Temp:Abs-Feuchte:Windchill:Wind:
Aussen-T/F 651 25-09-2020 06:10:00 10.8 C 9.19 g/m*3 9.64 C 9.7 km/h
652 25-09-2020 06:15:00 10.7 C 9.13 g/m*3 10.18 C 6.4 km/h
653 25-09-2020 06:20:00 10.6 C 9.08 g/m*3 10.6 C 4.8 km/h
654 25-09-2020 06:25:00 10.6 C 9.08 g/m*3 10.6 C 3.2 km/h
655 25-09-2020 06:30:00 10.5 C 8.92 g/m*3 10.5 C 3.2 km/h
656 25-09-2020 06:35:00 10.4 C 8.87 g/m*3 10.4 C 4.8 km/h
657 25-09-2020 06:40:00 10.3 C 8.81 g/m*3 10.3 C 3.2 km/h
658 25-09-2020 06:45:00 10.2 C 8.76 g/m*3 9.6 C 6.4 km/h
659 25-09-2020 06:50:00 10.2 C 8.76 g/m*3 9.6 C 6.4 km/h
660 25-09-2020 06:55:00 10.2 C 8.76 g/m*3 9.22 C 8.1 km/h
661 25-09-2020 07:00:00 10.1 C 8.7 g/m*3 10.1 C 4.8 km/h
662 25-09-2020 07:05:00 10.1 C 8.7 g/m*3 8.8 C 9.7 km/h
663 25-09-2020 07:10:00 10.1 C 8.61 g/m*3 9.1 C 8.1 km/h
664 25-09-2020 07:15:00 10.1 C 8.61 g/m*3 9.48 C 6.4 km/h
665 25-09-2020 07:20:00 10 C 8.55 g/m*3 10 C 0 km/h
666 25-09-2020 07:25:00 9.9 C 8.5 g/m*3 9.9 C 1.6 km/h
667 25-09-2020 07:30:00 9.8 C 8.44 g/m*3 9.8 C 3.2 km/h
668 25-09-2020 07:35:00 9.7 C 8.39 g/m*3 9.02 C 6.4 km/h
669 25-09-2020 07:40:00 9.7 C 8.48 g/m*3 9.7 C 1.6 km/h
670 25-09-2020 07:45:00 9.7 C 8.48 g/m*3 9.7 C 3.2 km/h
671 25-09-2020 07:50:00 9.7 C 8.48 g/m*3 8.33 C 9.7 km/h
672 25-09-2020 07:55:00 9.6 C 8.43 g/m*3 9.6 C 0 km/h
673 25-09-2020 08:00:00 9.6 C 8.43 g/m*3 9.6 C 1.6 km/h
674 25-09-2020 08:05:00 9.6 C 8.43 g/m*3 9.6 C 3.2 km/h
675 25-09-2020 08:10:00 9.6 C 8.43 g/m*3 9.6 C 0 km/h
Sensor: Nr:Datum:Temp:Abs-Feuchte:Windchill:Wind:
Aussen-T/F 676 25-09-2020 08:15:00 9.5 C 8.37 g/m*3 9.5 C 0 km/h
677 25-09-2020 08:20:00 9.4 C 8.32 g/m*3 9.4 C 0 km/h
678 25-09-2020 08:25:00 9.4 C 8.32 g/m*3 9.4 C 1.6 km/h
679 25-09-2020 08:30:00 9.4 C 8.23 g/m*3 9.4 C 4.8 km/h
680 25-09-2020 08:35:00 9.4 C 8.23 g/m*3 9.4 C 3.2 km/h
681 25-09-2020 08:40:00 9.5 C 8.28 g/m*3 9.5 C 3.2 km/h
682 25-09-2020 08:45:00 9.6 C 8.34 g/m*3 9.6 C 3.2 km/h
683 25-09-2020 08:50:00 9.6 C 8.24 g/m*3 8.52 C 8.1 km/h
684 25-09-2020 08:55:00 9.7 C 8.3 g/m*3 9.7 C 0 km/h
685 25-09-2020 09:00:00 9.7 C 8.3 g/m*3 9.7 C 1.6 km/h
686 25-09-2020 09:05:00 9.8 C 8.07 g/m*3 9.8 C 4.8 km/h
687 25-09-2020 09:10:00 9.9 C 8.22 g/m*3 9.9 C 1.6 km/h
688 25-09-2020 09:15:00 10.1 C 8.32 g/m*3 10.1 C 1.6 km/h
689 25-09-2020 09:20:00 10.1 C 8.13 g/m*3 9.48 C 6.4 km/h
690 25-09-2020 09:25:00 10.2 C 8.09 g/m*3 10.2 C 3.2 km/h
691 25-09-2020 09:30:00 10.3 C 8.14 g/m*3 10.3 C 4.8 km/h
692 25-09-2020 09:35:00 10.4 C 8.19 g/m*3 10.4 C 1.6 km/h
693 25-09-2020 09:40:00 10.5 C 8.24 g/m*3 9.95 C 6.4 km/h
694 25-09-2020 09:45:00 10.6 C 8.3 g/m*3 10.6 C 0 km/h
695 25-09-2020 09:50:00 10.7 C 8.35 g/m*3 10.7 C 0 km/h
696 25-09-2020 09:55:00 10.8 C 8.3 g/m*3 10.8 C 1.6 km/h
697 25-09-2020 10:00:00 10.8 C 8.3 g/m*3 10.8 C 3.2 km/h
698 25-09-2020 10:05:00 10.9 C 8.36 g/m*3 10.9 C 4.8 km/h
699 25-09-2020 10:10:00 11.1 C 8.36 g/m*3 11.1 C 3.2 km/h
700 25-09-2020 10:15:00 11.1 C 8.26 g/m*3 11.1 C 1.6 km/h
Sensor: Nr:Datum:Temp:Abs-Feuchte:Windchill:Wind:
Aussen-T/F 701 25-09-2020 10:20:00 11.2 C 8.31 g/m*3 11.2 C 3.2 km/h
702 25-09-2020 10:25:00 11.3 C 8.36 g/m*3 11.3 C 1.6 km/h
703 25-09-2020 10:30:00 11.4 C 8.42 g/m*3 11.4 C 1.6 km/h
704 25-09-2020 10:35:00 11.4 C 8.42 g/m*3 11.4 C 6.4 km/h
705 25-09-2020 10:40:00 11.6 C 8.42 g/m*3 11.6 C 3.2 km/h
706 25-09-2020 10:45:00 11.7 C 8.47 g/m*3 11.7 C 9.7 km/h
707 25-09-2020 10:50:00 11.8 C 8.42 g/m*3 11.8 C 3.2 km/h
708 25-09-2020 10:55:00 11.9 C 8.58 g/m*3 11.9 C 4.8 km/h
709 25-09-2020 11:00:00 12.1 C 8.47 g/m*3 12.1 C 11.3 km/h
710 25-09-2020 11:05:00 12.2 C 8.63 g/m*3 12.2 C 6.4 km/h
711 25-09-2020 11:10:00 12.2 C 8.52 g/m*3 12.2 C 8.1 km/h
712 25-09-2020 11:15:00 12.3 C 8.47 g/m*3 12.3 C 8.1 km/h
713 25-09-2020 11:20:00 12.4 C 8.41 g/m*3 12.4 C 12.9 km/h
714 25-09-2020 11:25:00 12.4 C 8.41 g/m*3 12.4 C 9.7 km/h
715 25-09-2020 11:30:00 12.4 C 8.52 g/m*3 12.4 C 12.9 km/h
716 25-09-2020 11:35:00 12.4 C 8.41 g/m*3 12.4 C 6.4 km/h
717 25-09-2020 11:40:00 12.5 C 8.58 g/m*3 12.5 C 4.8 km/h
718 25-09-2020 11:45:00 12.6 C 8.52 g/m*3 12.6 C 6.4 km/h
719 25-09-2020 11:50:00 12.7 C 8.57 g/m*3 12.7 C 8.1 km/h
720 25-09-2020 11:55:00 12.7 C 8.35 g/m*3 12.7 C 8.1 km/h
721 25-09-2020 12:00:00 12.8 C 8.51 g/m*3 12.8 C 9.7 km/h
722 25-09-2020 12:05:00 12.9 C 8.45 g/m*3 12.9 C 9.7 km/h
723 25-09-2020 12:10:00 13 C 8.39 g/m*3 13 C 9.7 km/h
724 25-09-2020 12:15:00 13 C 8.39 g/m*3 13 C 11.3 km/h
725 25-09-2020 12:20:00 13 C 8.39 g/m*3 13 C 11.3 km/h
Sensor: Nr:Datum:Temp:Abs-Feuchte:Windchill:Wind:
Aussen-T/F 726 25-09-2020 12:25:00 13.1 C 8.44 g/m*3 13.1 C 11.3 km/h
727 25-09-2020 12:30:00 13.3 C 8.32 g/m*3 13.3 C 14.5 km/h
728 25-09-2020 12:35:00 13.3 C 8.32 g/m*3 13.3 C 12.9 km/h
729 25-09-2020 12:40:00 13.4 C 8.37 g/m*3 13.4 C 9.7 km/h
730 25-09-2020 12:45:00 13.6 C 8.24 g/m*3 13.6 C 19.3 km/h
731 25-09-2020 12:50:00 13.6 C 8.12 g/m*3 13.6 C 12.9 km/h
732 25-09-2020 12:55:00 13.6 C 8.24 g/m*3 13.6 C 11.3 km/h
733 25-09-2020 13:00:00 13.6 C 8.24 g/m*3 13.6 C 9.7 km/h
734 25-09-2020 13:05:00 13.6 C 8.12 g/m*3 13.6 C 16.1 km/h
735 25-09-2020 13:10:00 13.4 C 8.14 g/m*3 13.4 C 9.7 km/h
736 25-09-2020 13:15:00 13.4 C 8.14 g/m*3 13.4 C 6.4 km/h
737 25-09-2020 13:20:00 13.4 C 8.25 g/m*3 13.4 C 6.4 km/h
738 25-09-2020 13:25:00 13.5 C 8.19 g/m*3 13.5 C 12.9 km/h
739 25-09-2020 13:30:00 13.6 C 8.36 g/m*3 13.6 C 11.3 km/h
740 25-09-2020 13:35:00 13.6 C 8.24 g/m*3 13.6 C 8.1 km/h
741 25-09-2020 13:40:00 13.7 C 8.17 g/m*3 13.7 C 14.5 km/h
742 25-09-2020 13:45:00 13.7 C 8.17 g/m*3 13.7 C 9.7 km/h
743 25-09-2020 13:50:00 13.6 C 8.36 g/m*3 13.6 C 9.7 km/h
744 25-09-2020 13:55:00 13.4 C 8.6 g/m*3 13.4 C 16.1 km/h
745 25-09-2020 14:00:00 12.9 C 8.68 g/m*3 12.9 C 11.3 km/h
746 25-09-2020 14:05:00 12.8 C 9.07 g/m*3 12.8 C 0 km/h
747 25-09-2020 14:10:00 12.8 C 8.96 g/m*3 12.8 C 8.1 km/h
748 25-09-2020 14:15:00 12.8 C 9.07 g/m*3 12.8 C 4.8 km/h
749 25-09-2020 14:20:00 12.8 C 9.07 g/m*3 12.8 C 4.8 km/h
750 25-09-2020 14:25:00 12.9 C 9.24 g/m*3 12.9 C 3.2 km/h
Sensor: Nr:Datum:Temp:Abs-Feuchte:Windchill:Wind:
Aussen-T/F 751 25-09-2020 14:30:00 13.1 C 9.13 g/m*3 13.1 C 3.2 km/h
752 25-09-2020 14:35:00 13.1 C 9.13 g/m*3 13.1 C 0 km/h
753 25-09-2020 14:40:00 13.2 C 8.84 g/m*3 13.2 C 0 km/h
754 25-09-2020 14:45:00 13.3 C 8.9 g/m*3 13.3 C 0 km/h
755 25-09-2020 14:50:00 13.3 C 8.78 g/m*3 13.3 C 3.2 km/h
756 25-09-2020 14:55:00 13.4 C 8.72 g/m*3 13.4 C 4.8 km/h
757 25-09-2020 15:00:00 13.4 C 8.95 g/m*3 13.4 C 4.8 km/h
758 25-09-2020 15:05:00 13.5 C 9.01 g/m*3 13.5 C 3.2 km/h
759 25-09-2020 15:10:00 13.6 C 9.18 g/m*3 13.6 C 4.8 km/h
760 25-09-2020 15:15:00 13.6 C 9.06 g/m*3 13.6 C 4.8 km/h
761 25-09-2020 15:20:00 13.6 C 9.06 g/m*3 13.6 C 4.8 km/h
762 25-09-2020 15:25:00 13.6 C 9.3 g/m*3 13.6 C 4.8 km/h
763 25-09-2020 15:30:00 13.6 C 8.94 g/m*3 13.6 C 3.2 km/h
764 25-09-2020 15:35:00 13.8 C 9.53 g/m*3 13.8 C 0 km/h
765 25-09-2020 15:40:00 13.8 C 9.41 g/m*3 13.8 C 3.2 km/h
766 25-09-2020 15:45:00 13.8 C 9.53 g/m*3 13.8 C 3.2 km/h
767 25-09-2020 15:50:00 13.7 C 9.47 g/m*3 13.7 C 1.6 km/h
768 25-09-2020 15:55:00 13.8 C 9.65 g/m*3 13.8 C 4.8 km/h
769 25-09-2020 16:00:00 13.8 C 9.29 g/m*3 13.8 C 6.4 km/h
770 25-09-2020 16:05:00 13.8 C 9.29 g/m*3 13.8 C 1.6 km/h
771 25-09-2020 16:10:00 13.9 C 9.23 g/m*3 13.9 C 1.6 km/h
772 25-09-2020 16:15:00 14.1 C 9.22 g/m*3 14.1 C 3.2 km/h
773 25-09-2020 16:20:00 14.1 C 9.1 g/m*3 14.1 C 9.7 km/h
774 25-09-2020 16:25:00 14.2 C 9.04 g/m*3 14.2 C 4.8 km/h
775 25-09-2020 16:30:00 14.2 C 8.91 g/m*3 14.2 C 9.7 km/h
Sensor: Nr:Datum:Temp:Abs-Feuchte:Windchill:Wind:
Aussen-T/F 776 25-09-2020 16:35:00 14.3 C 9.09 g/m*3 14.3 C 8.1 km/h
777 25-09-2020 16:40:00 14.6 C 9.26 g/m*3 14.6 C 11.3 km/h
778 25-09-2020 16:45:00 14.6 C 8.88 g/m*3 14.6 C 9.7 km/h
779 25-09-2020 16:50:00 14.6 C 8.88 g/m*3 14.6 C 8.1 km/h
780 25-09-2020 16:55:00 14.6 C 8.88 g/m*3 14.6 C 11.3 km/h
781 25-09-2020 17:00:00 14.4 C 8.78 g/m*3 14.4 C 8.1 km/h
782 25-09-2020 17:05:00 14.4 C 8.9 g/m*3 14.4 C 6.4 km/h
783 25-09-2020 17:10:00 14.4 C 8.9 g/m*3 14.4 C 8.1 km/h
784 25-09-2020 17:15:00 14.4 C 8.78 g/m*3 14.4 C 6.4 km/h
785 25-09-2020 17:20:00 14.4 C 8.78 g/m*3 14.4 C 8.1 km/h
786 25-09-2020 17:25:00 14.4 C 8.65 g/m*3 14.4 C 12.9 km/h
787 25-09-2020 17:30:00 14.3 C 8.72 g/m*3 14.3 C 8.1 km/h
788 25-09-2020 17:35:00 14.2 C 8.67 g/m*3 14.2 C 8.1 km/h
789 25-09-2020 17:40:00 14.1 C 8.74 g/m*3 14.1 C 6.4 km/h
790 25-09-2020 17:45:00 14.1 C 8.98 g/m*3 14.1 C 6.4 km/h
791 25-09-2020 17:50:00 14 C 8.81 g/m*3 14 C 3.2 km/h
792 25-09-2020 17:55:00 13.9 C 8.75 g/m*3 13.9 C 8.1 km/h
793 25-09-2020 18:00:00 13.9 C 8.75 g/m*3 13.9 C 4.8 km/h
794 25-09-2020 18:05:00 13.8 C 8.7 g/m*3 13.8 C 6.4 km/h
795 25-09-2020 18:10:00 13.6 C 8.59 g/m*3 13.6 C 16.1 km/h
796 25-09-2020 18:15:00 13.2 C 8.5 g/m*3 13.2 C 19.3 km/h
797 25-09-2020 18:20:00 13 C 8.62 g/m*3 13 C 12.9 km/h
798 25-09-2020 18:25:00 12.8 C 8.62 g/m*3 12.8 C 8.1 km/h
799 25-09-2020 18:30:00 12.7 C 8.68 g/m*3 12.7 C 12.9 km/h
800 25-09-2020 18:35:00 12.6 C 8.74 g/m*3 12.6 C 9.7 km/h
Sensor: Nr:Datum:Temp:Abs-Feuchte:Windchill:Wind:
Aussen-T/F 801 25-09-2020 18:40:00 12.4 C 8.85 g/m*3 12.4 C 8.1 km/h
802 25-09-2020 18:45:00 12.3 C 8.8 g/m*3 12.3 C 9.7 km/h
803 25-09-2020 18:50:00 12.2 C 8.74 g/m*3 12.2 C 4.8 km/h
804 25-09-2020 18:55:00 12.2 C 8.74 g/m*3 12.2 C 6.4 km/h
805 25-09-2020 19:00:00 12.1 C 8.69 g/m*3 12.1 C 6.4 km/h
806 25-09-2020 19:05:00 12 C 8.63 g/m*3 12 C 6.4 km/h
807 25-09-2020 19:10:00 11.9 C 8.58 g/m*3 11.9 C 1.6 km/h
808 25-09-2020 19:15:00 11.9 C 8.58 g/m*3 11.9 C 3.2 km/h
809 25-09-2020 19:20:00 11.9 C 8.58 g/m*3 11.9 C 3.2 km/h
810 25-09-2020 19:25:00 11.8 C 8.53 g/m*3 11.8 C 8.1 km/h
811 25-09-2020 19:30:00 11.8 C 8.53 g/m*3 11.8 C 6.4 km/h
812 25-09-2020 19:35:00 11.8 C 8.53 g/m*3 11.8 C 3.2 km/h
813 25-09-2020 19:40:00 11.8 C 8.53 g/m*3 11.8 C 9.7 km/h
814 25-09-2020 19:45:00 11.8 C 8.42 g/m*3 11.8 C 12.9 km/h
815 25-09-2020 19:50:00 11.9 C 8.47 g/m*3 11.9 C 6.4 km/h
816 25-09-2020 19:55:00 11.9 C 8.47 g/m*3 11.9 C 8.1 km/h
817 25-09-2020 20:00:00 11.9 C 8.47 g/m*3 11.9 C 8.1 km/h
818 25-09-2020 20:05:00 11.9 C 8.47 g/m*3 11.9 C 4.8 km/h
819 25-09-2020 20:10:00 11.8 C 8.53 g/m*3 11.8 C 6.4 km/h
820 25-09-2020 20:15:00 11.8 C 8.53 g/m*3 11.8 C 8.1 km/h
821 25-09-2020 20:20:00 11.8 C 8.53 g/m*3 11.8 C 4.8 km/h
822 25-09-2020 20:25:00 11.7 C 8.47 g/m*3 11.7 C 8.1 km/h
823 25-09-2020 20:30:00 11.7 C 8.58 g/m*3 11.7 C 3.2 km/h
824 25-09-2020 20:35:00 11.7 C 8.58 g/m*3 11.7 C 6.4 km/h
825 25-09-2020 20:40:00 11.7 C 8.58 g/m*3 11.7 C 6.4 km/h
Sensor: Nr:Datum:Temp:Abs-Feuchte:Windchill:Wind:
Aussen-T/F 826 25-09-2020 20:45:00 11.7 C 8.47 g/m*3 11.7 C 6.4 km/h
827 25-09-2020 20:50:00 11.7 C 8.37 g/m*3 11.7 C 11.3 km/h
828 25-09-2020 20:55:00 11.7 C 8.37 g/m*3 11.7 C 6.4 km/h
829 25-09-2020 21:00:00 11.7 C 8.26 g/m*3 11.7 C 6.4 km/h
830 25-09-2020 21:05:00 11.6 C 8.21 g/m*3 11.6 C 6.4 km/h
831 25-09-2020 21:10:00 11.6 C 8.11 g/m*3 11.6 C 9.7 km/h
832 25-09-2020 21:15:00 11.6 C 8.11 g/m*3 11.6 C 11.3 km/h
833 25-09-2020 21:20:00 11.5 C 8.06 g/m*3 11.5 C 9.7 km/h
834 25-09-2020 21:25:00 11.5 C 7.95 g/m*3 11.5 C 11.3 km/h
835 25-09-2020 21:30:00 11.5 C 8.06 g/m*3 11.5 C 6.4 km/h
836 25-09-2020 21:35:00 11.5 C 7.95 g/m*3 11.5 C 4.8 km/h
837 25-09-2020 21:40:00 11.5 C 8.06 g/m*3 11.5 C 4.8 km/h
838 25-09-2020 21:45:00 11.5 C 7.95 g/m*3 11.5 C 6.4 km/h
839 25-09-2020 21:50:00 11.5 C 8.06 g/m*3 11.5 C 3.2 km/h
840 25-09-2020 21:55:00 11.4 C 8.01 g/m*3 11.4 C 9.7 km/h
841 25-09-2020 22:00:00 11.4 C 8.01 g/m*3 11.4 C 8.1 km/h
842 25-09-2020 22:05:00 11.4 C 8.01 g/m*3 11.4 C 11.3 km/h
843 25-09-2020 22:10:00 11.5 C 8.06 g/m*3 11.5 C 9.7 km/h
844 25-09-2020 22:15:00 11.5 C 8.16 g/m*3 11.5 C 8.1 km/h
845 25-09-2020 22:20:00 11.5 C 8.06 g/m*3 11.5 C 12.9 km/h
846 25-09-2020 22:25:00 11.5 C 8.06 g/m*3 11.5 C 8.1 km/h
847 25-09-2020 22:30:00 11.4 C 8.01 g/m*3 11.4 C 11.3 km/h
848 25-09-2020 22:35:00 11.4 C 8.01 g/m*3 11.4 C 11.3 km/h
849 25-09-2020 22:40:00 11.4 C 8.11 g/m*3 11.4 C 11.3 km/h
850 25-09-2020 22:45:00 11.4 C 8.11 g/m*3 11.4 C 6.4 km/h
Sensor: Nr:Datum:Temp:Abs-Feuchte:Windchill:Wind:
Aussen-T/F 851 25-09-2020 22:50:00 11.4 C 8.11 g/m*3 11.4 C 4.8 km/h
852 25-09-2020 22:55:00 11.3 C 8.16 g/m*3 11.3 C 1.6 km/h
853 25-09-2020 23:00:00 11.3 C 8.16 g/m*3 11.3 C 4.8 km/h
854 25-09-2020 23:05:00 11.3 C 8.26 g/m*3 11.3 C 8.1 km/h
855 25-09-2020 23:10:00 11.2 C 8.11 g/m*3 11.2 C 12.9 km/h
856 25-09-2020 23:15:00 11.2 C 8.21 g/m*3 11.2 C 8.1 km/h
857 25-09-2020 23:20:00 11.2 C 8.21 g/m*3 11.2 C 11.3 km/h
858 25-09-2020 23:25:00 11.2 C 8.11 g/m*3 11.2 C 9.7 km/h
859 25-09-2020 23:30:00 11.1 C 8.06 g/m*3 11.1 C 11.3 km/h
860 25-09-2020 23:35:00 11.2 C 8.11 g/m*3 11.2 C 9.7 km/h
861 25-09-2020 23:40:00 11.2 C 8.11 g/m*3 11.2 C 12.9 km/h
862 25-09-2020 23:45:00 11.2 C 8.11 g/m*3 11.2 C 9.7 km/h
863 25-09-2020 23:50:00 11.2 C 8.11 g/m*3 11.2 C 16.1 km/h
864 25-09-2020 23:55:00 11.2 C 8.11 g/m*3 11.2 C 9.7 km/h

Legende:
   Min
   Max


Maximal/Minimal-Werte vom 23.09.2020 - 25.09.2020

Sensor Min Max Avg
Temp
(Aussen-T/F)
9.4 °C
25-09-2020  08:20:00
24.4 °C
23-09-2020  17:50:00
15.33 °C
Abs-Feuchte
(Aussen-T/F)
7.95 g/m*3
25-09-2020  21:25:00
12.98 g/m*3
24-09-2020  02:20:00
9.88 g/m*3
Windchill
(Aussen-T/F)
8.33 C
25-09-2020  07:50:00
24.4 C
23-09-2020  17:50:00
15.29 C

Die Daten stammen von einer Davis Vantage Pro 2 Wetter-Station und werden unter Linux mit der Software wview2wettercgi und aufbereitet. Alle Angaben erfolgen ohne Gewähr für ihre Vollständigkeit oder Richtigkeit.
Kontakt: Rainer Krienke krienke@uni-koblenz.de . Meine Webseiten an der Uni Koblenz oder privat.
Version: $Revision: 0.78 $